Preview of NWS' New Version of Forecast
This preview is not operational and should not be used for support decisions.

Regional Weather Roundup (RWR)

Issued by National Weather Service (NWS)

                            
000
ASUS45 KBOU 221010
RWRCO 

WEATHER ROUNDUP FOR COLORADO
NATIONAL WEATHER SERVICE DENVER/BOULDER CO
400 AM MDT MON APR 22 2019

NOTE: "FAIR" INDICATES FEW OR NO CLOUDS BELOW 12000 FEET WITH NO
SIGNIFICANT WEATHER AND/OR OBSTRUCTIONS TO VISIBILITY.

COZ001>005-013-030-031-221100-
...NORTHWEST COLORADO...
  
CITY           SKY/WX    TMP DP  RH WIND       PRES   REMARKS
CRAIG          FAIR      33  30  88 CALM      30.09R                  
HAYDEN         FAIR      36  34  92 CALM      30.10R                  
MEEKER         FAIR      31  29  92 CALM      30.09R                  
RANGELY        FAIR      35  33  96 E8        30.08S WCI  28          
RABBIT EARS PA FAIR      30  28  93 SE7       30.19R WCI  23          
STEAMBOAT SPGS FAIR      34  34 100 CALM      30.08S                  
WALDEN         FAIR      34  32  93 CALM      30.16R                  
$$

COZ006>008-011-221100-
...WEST CENTRAL VALLEYS...
  
CITY           SKY/WX    TMP DP  RH WIND       PRES   REMARKS
GRAND JUNCTION FAIR      46  38  73 SE5       29.99R                  
MONTROSE       FAIR      39  24  55 SE9       30.04R                  
EAGLE          FAIR      32  28  85 CALM      30.13R                  
RIFLE          FAIR      37  34  89 CALM      30.04R                  
DELTA          FAIR      46  36  67 CALM      30.01R                  
NUCLA          FAIR      41  21  45 E9        30.05R                  
$$

COZ017>023-064>068-221100-
...SOUTHWEST COLORADO...
  
CITY           SKY/WX    TMP DP  RH WIND       PRES   REMARKS
DURANGO        FAIR      37  23  56 N6        30.05S                  
CORTEZ         FAIR      39  24  55 NE6       30.02S                  
PAGOSA SPRINGS FAIR      34  27  74 CALM      30.12S                  
TELLURIDE      FAIR      37  21  52 SE6       30.14S                  
WOLF CREEK PAS FAIR      28  18  64 S8        30.30S WCI  20          
$$

COZ009-010-012-014-032>034-037-058>063-221100-
...CENTRAL COLORADO...
  
CITY           SKY/WX    TMP DP  RH WIND       PRES   REMARKS
ASPEN          FAIR      31  23  72 S5        30.09S WCI  26          
BUENA VISTA    FAIR      31  22  71 W5        30.16S WCI  26          
COPPER MTN     FAIR      34  18  51 S13G20    30.25S WCI  25          
BERTHOUD PASS  FAIR      27  16  63 SW9       30.27R WCI  17          
COTTONWOOD PAS FAIR      36  23  60 CALM      30.20S                  
GUNNISON       FAIR      29  25  85 CALM      30.13R                  
GRANBY         FAIR      28  27  96 SE3       30.16R                  
KREMMLING      FAIR      32  32 100 CALM      30.15R                  
LEADVILLE      FAIR      27  20  75 CALM      30.19R                  
MONARCH PASS   MOCLDY    32  14  47 SW10      30.36S WCI  24          
SALIDA         MOCLDY    38  30  73 W3        30.22R                  
SUNLIGHT       FAIR      32  19  59 CALM      30.22S                  
WILKERSON PASS FAIR      30  27  86 SW5       30.26S WCI  25          
$$

COZ069>075-221100-
...SAN LUIS VALLEY/SANGRE DE CRISTO MOUNTAINS...
  
CITY           SKY/WX    TMP DP  RH WIND       PRES   REMARKS
ALAMOSA        FAIR      35  28  75 S6        30.10R WCI  30          
DEL NORTE      FAIR      34  20  56 W6        30.13R WCI  29          
LA VETA PASS   NOT AVBL                                               
SAGUACHE       FAIR      36  19  51 CALM      30.12S                  
$$

COZ035-036-038>040-221100-
...NORTHERN COLORADO FRONT RANGE...
  
CITY           SKY/WX    TMP DP  RH WIND       PRES   REMARKS
DENVER INTL AP CLOUDY    42  41  96 NE15      30.16R                  
AURORA         LGT RAIN  41  41 100 NE10      30.17R                  
FRONT RANGE AP CLOUDY    44  42  95 NE13      30.17R                  
ERIE MUNI ARPT CLOUDY    44  41  90 NE10      30.22R                  
BOULDER MUN AP CLOUDY    43  41  93 N7        30.18R                  
CENTENNIAL     LGT RAIN  43  41  93 NE9       30.16R VSB 1            
BROOMFIELD     DRIZZLE   43  41  93 NE12      30.18R                  
FORT COLLINS   CLOUDY    43  39  86 NE10      30.18R                  
LONGMONT       CLOUDY    45  41  87 NE8       30.20R                  
$$

COZ041-046-047-076>085-087-088-221100-
...PIKES PEAK/PALMER DIVIDE AND SOUTHERN FOOTHILLS...
  
CITY           SKY/WX    TMP DP  RH WIND       PRES   REMARKS
COLO. SPRINGS  MOCLDY    46  38  73 NW5       30.15R                  
A. F. ACADEMY  CLOUDY    44  40  83 NW10      30.13R                  
SCHRIEVER AFB  NOT AVBL                                               
CHEYENNE MTN   MOCLDY    41  37  86 CALM      30.11R                  
ELLICOTT         N/A    N/A N/A N/A N8        30.13R                  
FALCON         MOCLDY    41  39  93 N10G18    30.15R                  
FORT CARSON    CLOUDY    45  39  80 CALM      30.14S                  
LIMON          CLOUDY    41  40  96 N16       30.15R                  
MONUMENT HILL  FOG       37  37 100 N12       30.18R VSB 1/4          
CANON CITY     CLOUDY    50  43  76 E9        30.11R                  
WALSENBURG     NOT AVBL                                               
TRINIDAD       CLOUDY    44  38  79 CALM      30.14R                  
$$

COZ042>045-048>051-090-091-221100-
...NORTHEAST COLORADO...
  
CITY           SKY/WX    TMP DP  RH WIND       PRES   REMARKS
GREELEY ARPT   NOT AVBL                                               
AKRON          CLOUDY    41  39  93 N22       30.13S                  
BURLINGTON     CLOUDY    46  42  86 N20G29    30.08R                  
WRAY           CLOUDY    45  39  81 N20G26    30.10S                  
YUMA           NOT AVBL                                               
STERLING       CLOUDY    43  39  87 N17       30.13R                  
HOLYOKE        CLOUDY    45  41  87 N18G26    30.11R                  
FORT MORGAN    NOT AVBL                                               
$$

COZ086-089-092>099-221100-
...SOUTHEAST COLORADO...
  
CITY           SKY/WX    TMP DP  RH WIND       PRES   REMARKS
PUEBLO         MOCLDY    44  39  82 N5        30.12R                  
LA JUNTA       CLOUDY    50  42  74 E3        30.12R                  
LAMAR          CLOUDY    47  42  83 NW7       30.08R                  
SPRINGFIELD      N/A     44  42  93 N10       30.08R                  
$$